Location: Asheville, NC
(35.6000°N, 82.5500°W)
Time: 06:05:17
(UTC-04:00)

Vanguard 1 - Pass Details

Date: 15 December 2017
Orbit: 650 x 3833 km, 34.2° (Epoch: 22 July)

Event Time Altitude Azimuth Distance (km) Brightness Sun altitude
Rises 15:59:00 0° 283° (WNW) 5,701 14.5 12.4°
Reaches altitude 10° 16:04:18 10° 272° (W) 4,078 14.1 11.6°
Maximum altitude 16:11:26 23° 225° (SW) 2,398 14.2 10.5°
Drops below altitude 10° 16:16:19 10° 175° (S) 2,671 12.8 9.7°
Sets 16:18:58 0° 159° (SSE) 3,353 13.0 9.3°
